[[{"header":{"parameterUnit":"m.s-1","parameterCategory":1,"la1":30.2991,"la2":30.254,"lo1":-89.0895,"lo2":-89.0444,"dy":0.0017,"dx":0.0017,"nx":28,"ny":28,"refTime":"2023-10-05T09:00:00:Z","depth":0,"parameterNumber":2,"parameterNumberName":"U-component_of_WINDS"},"data":[0,0,0,0,0,0,0,0,0,0,0,0,0,0,0,0,0,0,0,0,0,0,0,0,0,0,0,0,0,0,0,0,0,0,0,0,0,0,0,0,0,0,0,0,0,0,0,0,0,0,0,0,0,0,0,0,0,0,0.4264,0.4264,0,0.424,0.424,0.424,0.4251,0.4251,0.4252,0.4252,0.4224,0.4223,0.4222,0,0,0,0,0,0,0,0,0,0,0,0,0,0.4317,0.4316,0.4264,0.4264,0.4263,0.424,0.424,0.4239,0.425,0.4251,0.4252,0.4253,0.4225,0.4223,0.4222,0,0,0,0,0,0,0,0,0,0,0,0,0,0.4293,0.4315,0.4264,0.4266,0.4266,0.424,0.424,0.4239,0.425,0.4251,0.4252,0.4253,0.4225,0.4223,0.4222,0.4191,0,0,0.4216,0.4215,0,0,0,0,0,0,0,0,0.4295,0.4291,0.4266,0.4266,0.4266,0.4249,0.4248,0.4223,0.425,0.4256,0.4252,0.4253,0.4232,0.4229,0.4223,0.419,0.4189,0.4215,0.4214,0.4213,0.4213,0,0,0,0,0,0,0,0.4296,0.4293,0.4254,0.4266,0.4266,0.4268,0.4265,0.4244,0.4239,0.4256,0.4256,0.4254,0.4232,0.4225,0.4222,0.4188,0.4215,0.4214,0.4212,0.4212,0.4129,0.4128,0,0,0,0,0,0,0.4298,0.4294,0.4255,0.4254,0.4283,0.4266,0.4263,0.4254,0.4239,0.4238,0.4253,0.4254,0.4228,0.4224,0.4221,0.4184,0.4213,0.4212,0.421,0.413,0.4129,0.4128,0,0,0,0,0,0,0.4299,0.4295,0.4256,0.4274,0.4269,0.4264,0.4253,0.4253,0.4245,0.4237,0.4236,0.4246,0.4228,0.4224,0.4199,0.4183,0.4211,0.4209,0.4132,0.413,0.4129,0.411,0,0,0,0,0,0,0.4301,0.4295,0.4284,0.4274,0.4268,0.4235,0.4252,0.4252,0.4242,0.4244,0.4231,0.423,0.4229,0.4202,0.4197,0.4181,0.4207,0.4133,0.4131,0.4129,0.4112,0.4108,0.4105,0,0,0,0,0,0.4303,0.4279,0.4283,0.4278,0.4254,0.4234,0.4231,0.4231,0.4241,0.4229,0.4224,0.423,0.4187,0.4199,0.4194,0.4177,0.4134,0.4131,0.4129,0.4114,0.4109,0.4105,0,0,0,0,0,0,0.4286,0.4278,0.4282,0.4255,0.4245,0.4236,0.4221,0.4226,0.4212,0.4214,0.4214,0.4211,0.4185,0.4179,0.4193,0.4147,0.4162,0.4158,0.4152,0.4147,0.4144,0.4145,0.4206,0,0,0,0,0,0.4279,0.4264,0.4257,0.4234,0.4229,0.4226,0.4217,0.4218,0.4208,0.4203,0.4196,0.4185,0.4169,0.4158,0.4143,0.4112,0.4109,0.4099,0.4095,0.4092,0.4088,0.4072,0.4067,0.4121,0.4121,0.4121,0,0,0.4264,0.4258,0.4248,0.423,0.4223,0.4206,0.4222,0.4204,0.4191,0.42,0.4176,0.4171,0.4158,0.413,0.4118,0.4124,0.4073,0.4089,0.4087,0.4085,0.4069,0.4064,0.4059,0.4119,0.4119,0.412,0,0,0.4229,0.4224,0.4203,0.4196,0.4185,0.4184,0.4179,0.4169,0.4166,0.4143,0.4149,0.4134,0.4106,0.4097,0.4089,0.4052,0.4057,0.4048,0.4028,0.4012,0.4007,0.4004,0.3989,0.3985,0.4044,0.4044,0.4044,0,0.4212,0.4188,0.4192,0.4173,0.4165,0.4174,0.4153,0.4145,0.413,0.4123,0.4132,0.4098,0.409,0.406,0.4051,0.4045,0.4038,0.4048,0.4008,0.4004,0.4001,0.3987,0.3982,0.4043,0.4043,0.4043,0.4044,0,0.4167,0.4151,0.4136,0.4122,0.4112,0.4092,0.4092,0.4081,0.4084,0.4081,0.4057,0.4049,0.4032,0.4025,0.4027,0.3996,0.4,0.4008,0.4022,0.3994,0.3982,0.3977,0.4041,0.4042,0.4042,0.4043,0,0,0.4118,0.4108,0.4102,0.4096,0.4086,0.4073,0.4054,0.4039,0.4029,0.4019,0.4002,0.398,0.3988,0.3978,0.398,0.3965,0.3936,0.3975,0.3975,0.3967,0.39,0.3893,0.3887,0.394,0.3939,0.3938,0.3901,0,0.4081,0.4049,0.4052,0.402,0.4005,0.4015,0.3998,0.3989,0.3987,0.3973,0.397,0.3954,0.3966,0.396,0.3947,0.3943,0.3922,0.3946,0.3923,0.3922,0.3924,0.388,0.3872,0.3837,0.3896,0.3895,0.3894,0,0.4033,0.4023,0.399,0.3983,0.3977,0.3962,0.3948,0.3935,0.3926,0.3925,0.3916,0.392,0.39,0.3917,0.3889,0.3905,0.3896,0.3893,0.3891,0.3887,0.3905,0.3874,0.3826,0.382,0.3887,0.3887,0.3888,0,0.3999,0.3977,0.3955,0.3949,0.3941,0.393,0.3926,0.3918,0.3909,0.3897,0.3891,0.3877,0.3869,0.3858,0.3858,0.387,0.3829,0.3846,0.3827,0.3827,0.3816,0.3816,0.3764,0.3813,0.3814,0.3814,0.3814,0,0.3957,0.3936,0.3939,0.3925,0.3902,0.3907,0.3884,0.3881,0.3874,0.3859,0.3866,0.3852,0.3854,0.3839,0.3839,0.3816,0.3812,0.381,0.381,0.3809,0.3809,0.3801,0.3803,0.3812,0.3813,0.3813,0.3813,0,0.3914,0.3915,0.3891,0.3886,0.3884,0.3868,0.3863,0.3849,0.3849,0.383,0.3825,0.3823,0.3807,0.3807,0.3787,0.3787,0.3758,0.3762,0.3761,0.3761,0.3742,0.3743,0.3682,0.3674,0.373,0.373,0.3729,0,0.3885,0.387,0.3864,0.3855,0.385,0.3836,0.3827,0.3831,0.3822,0.3811,0.3799,0.3783,0.3771,0.3744,0.374,0.3725,0.3728,0.3707,0.3725,0.3724,0.3726,0.3726,0.3724,0.3703,0.3702,0.3702,0.3701,0,0.3835,0.3837,0.3824,0.3813,0.3803,0.3793,0.3784,0.3777,0.378,0.3769,0.3752,0.3743,0.3724,0.3708,0.3695,0.3689,0.3695,0.3696,0.3691,0.3688,0.3688,0.3686,0.375,0.3697,0.3697,0.3698,0.3698,0.3698,0.3797,0.3784,0.3778,0.3764,0.3758,0.375,0.3738,0.3736,0.3723,0.3709,0.3712,0.3694,0.3686,0.3668,0.3662,0.3647,0.3654,0.3647,0.3644,0.3642,0.3639,0.3692,0.3645,0.3645,0.3645,0.3645,0.3645,0,0.3745,0.3743,0.373,0.3718,0.3708,0.3717,0.3708,0.3698,0.3682,0.3675,0.3663,0.3644,0.363,0.3626,0.3611,0.36,0.3603,0.3596,0.3596,0.3595,0.3634,0.364,0.3595,0.3595,0.3595,0.3595,0.3595,0.3595,0.3717,0.3695,0.3697,0.3672,0.3669,0.3652,0.3646,0.3639,0.3633,0.3612,0.3601,0.3599,0.3593,0.3578,0.3565,0.3564,0.3558,0.355,0.355,0.3587,0.3592,0.3597,0.3602,0.3549,0.3549,0.3511,0.3511,0.3511]},{"header":{"parameterUnit":"m.s-1","parameterCategory":1,"la1":30.2991,"la2":30.254,"lo1":-89.0895,"lo2":-89.0444,"dy":0.0017,"dx":0.0017,"nx":28,"ny":28,"refTime":"2023-10-05T09:00:00:Z","depth":0,"parameterNumber":3,"parameterNumberName":"V-component_of_WINDS"},"data":[0,0,0,0,0,0,0,0,0,0,0,0,0,0,0,0,0,0,0,0,0,0,0,0,0,0,0,0,0,0,0,0,0,0,0,0,0,0,0,0,0,0,0,0,0,0,0,0,0,0,0,0,0,0,0,0,0,0,-6.9706,-6.9707,0,-6.9764,-6.9765,-6.9766,-6.9647,-6.9643,-6.9639,-6.9635,-6.9691,-6.9696,-6.9701,0,0,0,0,0,0,0,0,0,0,0,0,0,-6.9489,-6.9494,-6.9706,-6.9707,-6.9708,-6.9764,-6.9765,-6.9766,-6.9647,-6.9643,-6.9638,-6.9634,-6.9689,-6.9695,-6.9701,0,0,0,0,0,0,0,0,0,0,0,0,0,-6.9569,-6.9495,-6.9706,-6.9656,-6.9652,-6.9764,-6.9765,-6.9766,-6.9648,-6.9643,-6.9637,-6.9631,-6.9687,-6.9695,-6.9702,-6.9865,0,0,-6.9725,-6.9729,0,0,0,0,0,0,0,0,-6.9565,-6.9577,-6.9662,-6.9659,-6.9655,-6.9692,-6.9709,-6.9799,-6.965,-6.965,-6.9635,-6.9629,-6.9696,-6.9702,-6.9726,-6.9868,-6.987,-6.9726,-6.9731,-6.9734,-6.9736,0,0,0,0,0,0,0,-6.9559,-6.9574,-6.9729,-6.9664,-6.9659,-6.9629,-6.9634,-6.9725,-6.9704,-6.9649,-6.9641,-6.9649,-6.9693,-6.9719,-6.9726,-6.9871,-6.9726,-6.9733,-6.9737,-6.974,-7.015,-7.0156,0,0,0,0,0,0,-6.9561,-6.957,-6.9727,-6.9731,-6.9595,-6.9637,-6.9643,-6.9686,-6.9703,-6.97,-6.9654,-6.9644,-6.9709,-6.9718,-6.9728,-6.9921,-6.9734,-6.9741,-6.9746,-7.0144,-7.0152,-7.0159,0,0,0,0,0,0,-6.9556,-6.9576,-6.9725,-6.9648,-6.9665,-6.9647,-6.9697,-6.969,-6.9716,-6.9707,-6.9702,-6.9685,-6.9704,-6.9717,-6.9832,-6.9921,-6.9745,-6.9752,-7.0137,-7.0146,-7.0155,-7.0308,0,0,0,0,0,0,-6.9551,-6.9575,-6.9638,-6.9651,-6.967,-6.983,-6.9702,-6.9696,-6.973,-6.9717,-6.9735,-6.9732,-6.9701,-6.9822,-6.984,-6.9928,-6.9757,-7.0129,-7.0141,-7.0152,-7.0295,-7.0321,-7.0344,0,0,0,0,0,-6.9543,-6.9677,-6.9642,-6.9661,-6.9748,-6.9835,-6.9846,-6.9809,-6.9738,-6.98,-6.9794,-6.9731,-6.9908,-6.9835,-6.9854,-6.9946,-7.0123,-7.0137,-7.0151,-7.0284,-7.0316,-7.0343,0,0,0,0,0,0,-6.9673,-6.9678,-6.9638,-6.978,-6.9809,-6.9815,-6.9893,-6.9844,-6.9892,-6.9877,-6.9827,-6.9832,-6.9958,-6.9963,-6.9881,-7.0105,-7.0003,-7.0022,-7.0097,-7.0128,-7.0152,-7.0148,-6.9764,0,0,0,0,0,-6.9719,-6.9791,-6.979,-6.9916,-6.9932,-6.9911,-6.9947,-6.9916,-6.9943,-6.9954,-6.9956,-6.9983,-7.0045,-7.0086,-7.0142,-7.0294,-7.0297,-7.0367,-7.0392,-7.0412,-7.0429,-7.0511,-7.0542,-7.0205,-7.0205,-7.0205,0,0,-6.9813,-6.9824,-6.9873,-6.9942,-6.996,-7.0036,-6.9921,-7.0005,-7.006,-6.9966,-7.0076,-7.0079,-7.0105,-7.0241,-7.03,-7.0249,-7.0523,-7.043,-7.0447,-7.0453,-7.0529,-7.0561,-7.0589,-7.0215,-7.0213,-7.0212,0,0,-7.0023,-7.0039,-7.0146,-7.0167,-7.0197,-7.0181,-7.0207,-7.0222,-7.0221,-7.033,-7.0262,-7.0325,-7.0432,-7.0455,-7.048,-7.07,-7.0645,-7.072,-7.0849,-7.0929,-7.0955,-7.0979,-7.1058,-7.1087,-7.0737,-7.0737,-7.0737,0,-7.0136,-7.0248,-7.0206,-7.0296,-7.0329,-7.0249,-7.0356,-7.0378,-7.0424,-7.0448,-7.039,-7.0524,-7.0536,-7.0676,-7.073,-7.0753,-7.0781,-7.0718,-7.0955,-7.0978,-7.0999,-7.1074,-7.1104,-7.0746,-7.0745,-7.0744,-7.0743,0,-7.0385,-7.0464,-7.0546,-7.0596,-7.0637,-7.0735,-7.0708,-7.0755,-7.0721,-7.0711,-7.0824,-7.0836,-7.0894,-7.0925,-7.0891,-7.106,-7.1028,-7.0964,-7.086,-7.1041,-7.1111,-7.1139,-7.0759,-7.0756,-7.0753,-7.0751,0,0,-7.0679,-7.0705,-7.0736,-7.0758,-7.0785,-7.0844,-7.0938,-7.0996,-7.1038,-7.1072,-7.115,-7.1243,-7.1185,-7.1214,-7.1182,-7.1252,-7.1427,-7.1179,-7.1179,-7.1226,-7.1615,-7.1664,-7.1698,-7.139,-7.1395,-7.1399,-7.1613,0,-7.0888,-7.1052,-7.1019,-7.1179,-7.1251,-7.1177,-7.1259,-7.1284,-7.1278,-7.1337,-7.1329,-7.1397,-7.1314,-7.1331,-7.1397,-7.1392,-7.1505,-7.1376,-7.1461,-7.1465,-7.1458,-7.1734,-7.1786,-7.1987,-7.164,-7.1644,-7.1648,0,-7.1154,-7.1201,-7.137,-7.1387,-7.1416,-7.1491,-7.1542,-7.1599,-7.1626,-7.1617,-7.1651,-7.1605,-7.1698,-7.1594,-7.1721,-7.1634,-7.1667,-7.167,-7.1676,-7.1684,-7.1568,-7.175,-7.205,-7.2081,-7.169,-7.1687,-7.1684,0,-7.1353,-7.1458,-7.1573,-7.1593,-7.1616,-7.167,-7.1682,-7.1703,-7.174,-7.1784,-7.1808,-7.1862,-7.1891,-7.1934,-7.1904,-7.1831,-7.2036,-7.1929,-7.2031,-7.2032,-7.2078,-7.2076,-7.2389,-7.2098,-7.2098,-7.2097,-7.2097,0,-7.1591,-7.1697,-7.1663,-7.1733,-7.185,-7.1809,-7.1926,-7.1928,-7.1948,-7.2017,-7.1955,-7.2021,-7.1977,-7.2039,-7.2016,-7.2126,-7.2139,-7.2134,-7.2127,-7.214,-7.2141,-7.2162,-7.2147,-7.2105,-7.2104,-7.2102,-7.2101,0,-7.1833,-7.1814,-7.1934,-7.1946,-7.1952,-7.2037,-7.2047,-7.2112,-7.2102,-7.219,-7.2209,-7.2192,-7.2262,-7.2237,-7.2311,-7.2295,-7.2435,-7.2409,-7.2427,-7.2421,-7.2525,-7.2516,-7.2863,-7.2907,-7.2587,-7.259,-7.2592,0,-7.1986,-7.2067,-7.2088,-7.2131,-7.2148,-7.2217,-7.2256,-7.2218,-7.2261,-7.2298,-7.236,-7.2424,-7.2475,-7.259,-7.2584,-7.264,-7.2616,-7.2734,-7.2624,-7.2635,-7.2619,-7.2615,-7.2623,-7.2756,-7.276,-7.2763,-7.2765,0,-7.2261,-7.2248,-7.2307,-7.2364,-7.2412,-7.2454,-7.249,-7.2528,-7.2493,-7.2544,-7.2616,-7.2655,-7.2732,-7.2797,-7.2848,-7.2858,-7.2807,-7.28,-7.2826,-7.2842,-7.2849,-7.2848,-7.2488,-7.2792,-7.2789,-7.2787,-7.2786,-7.2785,-7.2464,-7.2533,-7.2559,-7.2627,-7.2651,-7.2687,-7.2749,-7.2748,-7.2807,-7.2869,-7.2842,-7.2926,-7.295,-7.3014,-7.3032,-7.3096,-7.305,-7.3088,-7.3098,-7.3109,-7.3123,-7.2839,-7.3104,-7.3104,-7.3103,-7.3102,-7.3102,0,-7.2737,-7.2751,-7.2814,-7.2867,-7.2921,-7.2869,-7.2906,-7.2954,-7.3029,-7.3057,-7.3109,-7.3192,-7.3255,-7.3255,-7.3313,-7.3365,-7.3342,-7.3381,-7.3378,-7.3381,-7.316,-7.3131,-7.3399,-7.3399,-7.3399,-7.3398,-7.3398,-7.3398,-7.2885,-7.2999,-7.299,-7.3114,-7.3126,-7.3209,-7.3235,-7.3268,-7.329,-7.3387,-7.344,-7.344,-7.3456,-7.3516,-7.3572,-7.357,-7.3595,-7.3643,-7.3633,-7.3426,-7.3397,-7.3368,-7.3342,-7.3649,-7.3649,-7.3849,-7.3851,-7.3852]}]]